Regional Weather Roundup
Issued by NWS Kansas City/Pleasant Hill, MO

Home | Current Version | Previous Version | Graphics & Text | Print | Product List | Glossary Off
Versions: 1 2 3 4 5 6 7 8 9 10 11 12 13 14 15 16 17 18 19 20 21 22 23 24 25 26 27 28 29 30 31 32 33 34 35 36 37 38 39 40 41 42 43 44 45 46 47 48 49 50

000
ASUS43 KEAX 290511
RWREAX

WEATHER ROUNDUP FOR EASTERN KANSAS AND NORTHWEST MISSOURI
NATIONAL WEATHER SERVICE KANSAS CITY/PLEASANT HILL MO
1100 PM CST WED JAN 28 2015

KSZ040-057-103>105-MOZ028-029-037-043-290600-
...KANSAS CITY METROPOLITAN AREA...

CITY           SKY/WX    TMP DP  RH WIND       PRES   REMARKS
K.C. INTL      MOCLDY    55  36  48 NW17G25   29.81R
K.C. DOWNTOWN  CLEAR     59  35  40 NW12G21   29.80R
LEES SUMMIT    MOCLDY    58  36  43 W12G21    29.80R
OLATHE - IXD   CLEAR     55  35  47 NW15      29.84R
OLATHE - OJC   CLEAR     58  35  42 NW15G22   29.81R
LAWRENCE       CLEAR     53  34  48 NW13      29.85R

$$

MOZ001>008-011>017-020>025-030>033-038>040-044>046-053-054-290600-
...NORTHERN AND CENTRAL MISSOURI...

CITY           SKY/WX    TMP DP  RH WIND       PRES   REMARKS
ST. JOSEPH     CLEAR     53  38  56 NW16G33   29.82R
MOSBY          CLEAR     59  34  38 W14G20    29.78R
WARRENSBURG    MOCLDY    55  39  54 SW14      29.78R
WHITEMAN AFB   MOCLDY    55  41  58 SW9       29.77S
CLINTON        CLOUDY    59  45  58 SW12      29.80S
SEDALIA        MOCLDY    57  41  55 SW12      29.77F
WARSAW         NOT AVBL
MARSHALL       PTCLDY    55  43  62 SW10      29.76S
CHILLICOTHE      N/A     55  37  50 VRB5      29.75R
MOBERLY        MOCLDY    54  36  50 SW17G25   29.72F
KIRKSVILLE     PTCLDY    50  38  63 SW8       29.70R

$$

MOZ041-047>049-056>058-063>065-088>090-097-290600-
...EASTERN AND SOUTHERN MISSOURI...

CITY           SKY/WX    TMP DP  RH WIND       PRES   REMARKS
ST. LOUIS INTL MOCLDY    48  34  58 S9        29.84F
SPIRIT OF STL  PTCLDY    50  35  56 VRB7      29.82F
COLUMBIA       CLOUDY    54  38  54 S16       29.77F
JEFFERSON CITY CLOUDY    56  37  49 S8        29.80S
MEXICO         MOCLDY    50  41  71 S16G23    29.75F
HANNIBAL       CLOUDY    48  34  57 S15G22    29.71F
ROLLA          MOCLDY    50  37  61 SW15      29.82F
LEBANON        MOCLDY    54  39  58 S10       29.85S
OSAGE BEACH    CLOUDY    54  37  54 S9        29.82F
SPRINGFIELD    MOCLDY    53  40  61 S10       29.87R
BRANSON        MOCLDY    59  43  55 SW12      29.90F
JOPLIN         MOCLDY    61  41  47 SW14      29.88S
WEST PLAINS    CLEAR     47  36  65 S9        29.93F

$$

IAZ060-094-KSZ022-034>040-054-083-096-NEZ052-066-093-290600-
...KANSAS...SOUTHEAST NEBRASKA AND IOWA...

CITY           SKY/WX    TMP DP  RH WIND       PRES   REMARKS
TOPEKA         CLEAR     56  34  43 NW15G26   29.88R
MANHATTAN      CLEAR     56  31  38 NW9       29.93R
EMPORIA        CLEAR     56  33  42 NW15G23   29.91R
CHANUTE        CLOUDY    58  37  45 W7        29.88R
WICHITA        LGT RAIN  59  31  34 NW17      29.98R
OMAHA          CLOUDY    45  36  70 N32G45    29.89R WCI  35
LINCOLN        MOCLDY    49  35  58 N21       29.92R
FALLS CITY     PTCLDY    49  36  61 NW17G24   29.86R
LAMONI         CLEAR     40  34  79 NW10      29.73R WCI  33
DES MOINES     MOCLDY    36  32  85 NW9       29.72R WCI  29

$$




USA.gov is the U.S. government's official web portal to all federal, state and local government web resources and services.